Location: Cabeza de los Veneras
(40.2000°N, 5.2000°W)
Time: 04:55:14
(UTC+00:00)

BlueWalker 3 - Pass Details

Date: 27 June 2024
Orbit: 480 x 491 km, 53.2° (Epoch: 21 July)

Event Time Altitude Azimuth Distance (km) Brightness Sun altitude
Rises 21:10:49 0° 301° (WNW) 2,543 7.2 -12.2°
Reaches altitude 10° 21:14:27 10° 337° (NNW) 1,661 5.8 -12.7°
Maximum altitude 21:15:39 11° 356° (N) 1,584 5.2 -12.9°
Drops below altitude 10° 21:16:51 10° 15° (NNE) 1,660 5.0 -13.0°
Sets 21:20:28 0° 52° (NE) 2,538 5.5 -13.5°
